Orbital Elements at Epoch 2459200.5 (2020-Dec-17.0) TDB
Reference: JPL 14 (heliocentric ecliptic J2000)
Element | Value | Uncertainty (1-sigma) | Units |
e | .1471508830635896 | 5.9187e-08 | |
a | 2.643186102067228 | 1.1555e-08 | au |
q | 2.254238933046628 | 1.6039e-07 | au |
i | 3.199661367113749 | 3.6147e-06 | deg |
node | 88.88628669202625 | 0.00010352 | deg |
peri | 263.3638745013405 | 0.00010469 | deg |
M | 15.02800688404966 | 1.356e-05 | deg |
tp | 2459134.977731570394 (2020-Oct-12.47773157) | 5.9179e-05 | TDB |
period | 1569.603794878078 4.30 | 1.0292e-05 2.818e-08 | d yr |
n | .2293572436399236 | 1.504e-09 | deg/d |
Q | 3.032133271087828 | 1.3255e-08 | au |
|
| | Orbit Determination Parameters
Additional Information
|